RH
46 48 49 45 44 43 40 38 35 33 33 32 31 29 28 29 28 28 29 30 32 33 32 33 33 35 36 39 39 38 40 39 42 43 44 46 49 51 52 53 54 56 58 58
48 48 46 52 47 46 43 41 38 38 37 38 37 33 31 33 31 30 31 32 33 34 34 33 33 33 34 34 37 38 39 40 39 42 44 45 46 49 53 56 58 60 62 63
49 48 51 54 54 50 46 45 44 43 43 42 43 37 33 34 35 36 36 37 36 35 34 33 31 31 30 28 29 32 35 38 36 35 43 42 44 44 46 51 53 58 62 64
50 52 50 52 53 58 54 50 49 47 50 49 45 41 37 37 39 40 39 41 40 38 37 36 34 33 33 30 30 30 30 30 30 31 39 40 41 41 41 43 46 50 57 60
50 51 52 56 58 58 59 57 57 57 56 54 49 51 37 39 42 41 43 45 43 42 41 40 37 35 34 33 33 32 31 30 29 28 29 33 36 42 41 39 40 41 44 48
54 58 56 55 61 63 62 62 63 62 60 56 49 50 38 42 38 42 45 48 47 46 45 42 41 39 37 36 34 33 31 30 29 30 29 28 27 28 26 26 35 37 37 38
59 59 64 63 63 66 65 69 72 63 59 51 48 47 38 43 41 43 46 49 47 45 42 40 39 38 37 37 36 33 32 32 31 30 29 28 27 27 28 30 28 27 34 35
56 61 61 56 57 60 65 66 73 82 62 55 48 45 42 48 48 50 53 53 48 43 44 43 41 41 40 39 38 34 34 34 34 31 29 29 28 27 25 25 27 30 30 32
62 61 60 65 66 70 75 72 71 83 76 69 51 46 51 52 52 52 53 53 49 46 45 44 43 41 39 38 38 38 37 35 33 32 32 27 25 25 25 24 24 24 24 25
73 79 68 70 72 70 75 76 90 94 83 73 52 53 51 56 52 53 50 47 47 47 47 45 44 42 43 41 39 38 36 33 30 29 26 24 20 19 22 22 21 21 20 21
70 71 65 64 65 69 72 78 77 77 75 76 62 54 54 55 53 54 52 49 49 49 49 50 49 47 45 43 39 34 29 26 23 25 25 21 20 17 17 21 22 23 22 20
77 77 77 66 60 63 68 72 77 88 89 74 73 65 59 60 61 59 54 52 51 52 53 52 49 45 41 36 31 28 26 25 24 25 26 22 19 18 17 18 24 24 24 25
76 85 90 83 73 67 63 63 70 74 77 75 79 70 69 67 64 60 58 57 55 53 50 47 46 40 35 33 31 30 29 28 27 29 30 27 25 24 21 24 28 30 31 34
74 78 72 70 64 60 63 61 64 75 84 69 61 65 65 65 65 62 60 56 54 52 49 46 42 40 38 35 32 32 29 28 30 32 33 34 34 28 29 34 37 39 42 46
79 79 78 75 68 61 59 61 62 64 63 68 59 61 65 62 63 59 55 54 53 50 46 43 43 38 35 34 33 33 29 30 33 34 35 37 37 38 39 45 50 55 58 62
81 85 84 82 77 72 66 62 60 60 63 61 60 62 63 59 61 59 55 54 51 48 44 43 39 37 35 35 34 33 32 31 34 33 35 38 44 47 50 55 64 69 73 79
89 92 86 93 90 83 84 65 61 64 62 58 56 57 61 57 57 55 56 53 50 47 46 41 37 36 34 35 35 36 33 31 35 38 43 46 52 57 65 69 72 78 85 88
95 96 96 95 87 93 60 56 59 59 59 58 56 57 57 55 51 53 53 52 47 47 41 39 38 36 35 33 32 35 36 34 39 47 57 61 67 72 78 83 84 81 77 72
94 94 94 94 88 68 59 51 57 59 57 54 55 60 59 56 58 58 47 42 40 39 37 38 38 33 31 32 31 35 39 40 44 57 68 78 81 84 90 88 76 62 54 52
96 94 91 94 92 79 58 49 51 56 53 47 55 56 54 51 51 46 49 44 41 39 38 36 36 36 32 28 28 34 44 50 54 70 88 96 91 93 77 65 51 47 41 43
95 96 93 93 89 74 59 55 50 57 54 48 45 42 45 46 46 49 47 40 39 40 41 42 36 36 35 27 27 32 45 59 71 88 96 96 93 83 63 46 37 36 37 42
89 92 92 92 95 87 61 57 56 54 54 47 42 43 44 41 40 39 42 41 42 42 45 46 46 44 40 32 30 33 46 67 77 96 94 93 78 60 51 42 36 35 41 46
89 81 83 82 80 71 63 58 56 54 49 44 40 39 39 41 40 40 40 39 40 44 48 51 54 53 52 43 40 38 39 66 83 91 91 84 66 50 40 36 37 40 44 49
87 84 85 81 72 66 65 61 57 49 45 41 38 38 37 36 34 31 28 27 32 41 49 52 55 56 57 58 48 43 43 48 84 82 77 60 44 39 36 37 41 44 46 50
86 83 77 72 66 61 57 53 50 49 42 36 34 32 28 25 25 27 26 26 29 35 38 41 46 54 58 58 50 48 49 50 60 73 58 51 39 37 34 37 41 44 46 50
78 74 72 68 59 48 47 46 45 38 32 29 26 26 24 25 27 28 30 34 39 43 46 48 45 44 49 56 54 50 51 59 45 56 53 41 44 43 37 38 41 43 45 49